ARIANE 5 DEB (SYLDA), 44478

Orbit data source: Space-Track

ARIANE 5 DEB (SYLDA), 44478 is space debris originally from a launch on Tue, 06 Aug 2019 UTC launched from the French Guiana (FRGUI). Debris objects in space refer to the collection of defunct objects orbiting the Earth. Examples of debris include non-operational satellites, rocket bodies, and fragments generated from explosions, collisions, or faulty payload assembly.

Loading next visibility...
Identifier
44478, 2019-049D
Orbit
Active
Country
Flag of FRFR
Related business
Manufacturer
ADS/Bremen
Mission
Spacecraft
Bus & Motor
SYLDA 5, Unknown motor
Mass
440 kg wet, 440 kg dry
Launch date (UTC)
2019-08-06 (6 years ago)
Launch vehicle
Unknown
Launch site
French Guiana (FRGUI)
Object type
Payload
Rocket body
Debris
Shape & HBR
Cyl, 2.8 m
Radar Cross Section
27.391 m², Large (>1 m²)

Expand to show TLE details & history
Last TLE update: 8 hours ago

TLE from 8 hours ago
0 ARIANE 5 DEB (SYLDA)
1 44478U 19049D   25308.36970170  .00444899  00000-0  65265-2 0  9995
2 44478   4.3248 165.7597 3110860 341.7187   9.2071  9.25567642102570
Epoch: 2025-11-04T08:52Z
TLE epoch observation values (Epoch: 2025-11-04T08:52:22.226Z)
Latitude
-0.00001°
Longitude
-11.19068°
Altitude
301.411 km
Speed
8.818 km/s
True Right ascension
11h 03m 02s
True Declination
0° 00' 00"
Sunlit
Object was in daylight at epoch
Visualization orbit readout
Latitude
Unknown
Longitude
Unknown
Altitude
Unknown
Speed
Unknown
Apparent Right ascension
Unknown
Apparent Declination
Unknown
Sunlit
N/A
Visualization observer readout
Local Sidereal Time
12:51:18
Azimuth
Unknown
Elevation
Unknown
Doppler factor
Unknown
Orbital elements
Apogee altitude
6,191.859 km
Perigee altitude
226.805 km
Semi-major axis
9,587.469 km
Eccentricity
0.31109
Inclination
4.3248°
RAAN
165.7597°
Arg. of periapsis
341.7187°
True anomaly
18.2888°
Mean anomaly
9.2071°
Eccentric anomaly
13.31074°
Mean motion
2.312 °/min
Orbital period
155.71 mins
BSTAR
0.0065265
Loading maneuver chart data...
Computing Atmospheric mass density...
Loading historical data...
Loading historical data...
Loading historical data...
Loading historical data...
Loading historical data...
Loading historical data...
Loading historical data...
Other satellites on launch #49 in the year 2019 (2019-08-06 UTC)

Documentation

Showing up to 5 results
|